SR6WVX Weather Reports


Display with metric or nautical units.
time (UTC)temp
F
wind
direction
speed
MPH
gust
MPH
rain 1hr
in
rain 24hr
in
rain mn
in
humidity
%
barometer
mb
20180718010910 65 315 0.0 0.0 0.00 0.55 0.00 94 1005.3
20180718010409 65 315 0.0 0.0 0.00 0.55 0.00 94 1005.2
20180718005909 65 315 0.0 0.0 0.00 0.55 0.00 94 1005.4
20180718005409 65 337 0.0 0.0 0.00 0.55 0.00 94 1005.5
20180718004908 65 315 0.0 0.0 0.00 0.55 0.00 94 1005.3
20180718004408 65 292 0.0 0.0 0.00 0.55 0.00 94 1005.4
20180718003908 65 247 0.0 0.0 0.00 0.55 0.00 94 1005.6
20180718003408 65 315 0.0 5.0 0.00 0.55 0.00 94 1005.8
20180718002907 66 292 3.0 4.0 0.00 0.55 0.00 94 1005.7
20180718002407 65 315 3.0 6.0 0.00 0.55 0.00 94 1005.6
20180718001907 66 292 6.0 7.0 0.00 0.55 0.00 94 1005.7
20180718001407 66 292 7.0 10.0 0.00 0.55 0.00 94 1005.8
20180718000906 66 292 2.0 2.0 0.00 0.55 0.00 94 1005.7
20180718000406 66 292 1.0 3.0 0.00 0.55 0.00 94 1005.8
20180717235906 65 292 2.0 2.0 0.00 0.55 0.00 94 1005.7
20180717235406 66 315 0.0 0.0 0.00 0.55 0.00 94 1005.9
20180717234905 66 315 0.0 5.0 0.00 0.55 0.00 94 1005.9
20180717234405 66 315 5.0 5.0 0.00 0.55 0.00 94 1005.9
20180717233905 65 270 0.0 5.0 0.00 0.55 0.00 94 1006.0
20180717233404 65 292 5.0 5.0 0.00 0.55 0.00 94 1005.9
20180717232904 65 315 0.0 6.0 0.00 0.55 0.00 94 1005.9
20180717232404 65 315 6.0 9.0 0.00 0.55 0.00 94 1005.8
20180717231904 65 292 7.0 7.0 0.00 0.55 0.00 94 1005.7
20180717231403 65 337 5.0 5.0 0.00 0.55 0.00 94 1005.8
20180717230903 65 315 2.0 2.0 0.00 0.55 0.00 94 1005.8
20180717230403 65 315 2.0 4.0 0.00 0.55 0.00 94 1006.1
20180717225903 65 337 4.0 4.0 0.02 0.55 0.00 94 1005.9
20180717225402 65 270 1.0 1.0 0.02 0.55 0.00 94 1005.9
20180717224902 65 292 0.0 3.0 0.02 0.55 0.00 94 1005.9
20180717224402 65 292 2.0 2.0 0.08 0.55 0.00 94 1005.9
20180717223902 65 315 0.0 0.0 0.10 0.55 0.00 94 1006.1
20180717223401 65 292 0.0 0.0 0.10 0.55 0.00 94 1006.1
20180717222901 65 292 0.0 6.0 0.10 0.55 0.00 94 1006.1
20180717222401 65 247 3.0 3.0 0.10 0.55 0.00 94 1006.2
20180717221900 65 315 0.0 0.0 0.10 0.55 0.00 94 1006.2
20180717221400 65 315 0.0 0.0 0.10 0.55 0.00 94 1006.1
20180717220900 65 315 0.0 0.0 0.10 0.55 0.00 94 1006.2
20180717220400 65 270 0.0 10.0 0.10 0.55 0.00 94 1006.1
20180717215859 65 292 10.0 10.0 0.08 0.52 0.00 94 1006.2
20180717215359 65 315 0.0 11.0 0.08 0.52 0.00 94 1006.1
20180717214859 65 292 3.0 3.0 0.02 0.46 0.00 94 1006.2
20180717214359 65 292 1.0 5.0 0.02 0.46 0.00 94 1006.1
20180717213858 177 337 0.0 0.0 0.00 0.44 0.00 10 1006.3
20180717213358 177 337 0.0 0.0 0.00 0.44 0.00 10 1006.3
20180717212858 177 337 0.0 0.0 0.00 0.44 0.00 10 1006.3
20180717212358 177 337 0.0 0.0 0.00 0.44 0.00 10 1006.3
20180717211857 177 337 0.0 0.0 0.02 0.44 0.00 10 1006.2
20180717211357 66 337 3.0 3.0 0.02 0.44 0.00 93 1006.3
20180717210857 66 337 3.0 3.0 0.02 0.44 0.00 93 1006.2
20180717210356 66 337 3.0 3.0 0.02 0.44 0.00 93 1006.2
20180717205857 66 337 3.0 5.0 0.02 0.44 0.00 93 1006.3
20180717205356 66 315 5.0 5.0 0.02 0.44 0.00 93 1006.3
20180717204856 66 292 2.0 5.0 0.02 0.44 0.00 93 1006.3
20180717204356 66 292 0.0 4.0 0.02 0.44 0.00 93 1006.4
20180717203855 66 292 1.0 1.0 0.02 0.44 0.00 93 1006.4
20180717203355 66 292 1.0 4.0 0.02 0.44 0.00 93 1006.4
20180717202855 66 337 4.0 4.0 0.02 0.44 0.00 92 1006.1
20180717202354 66 315 3.0 10.0 0.00 0.42 0.00 92 1006.2
20180717201854 66 315 10.0 10.0 0.00 0.42 0.00 92 1006.3
20180717201354 66 292 0.0 6.0 0.00 0.42 0.00 92 1006.3
20180717200854 66 292 6.0 6.0 0.00 0.42 0.00 91 1006.5
20180717200353 66 315 0.0 5.0 0.00 0.42 0.00 91 1006.6
20180717195853 67 315 5.0 5.0 0.00 0.42 0.00 91 1006.4
20180717195353 67 315 0.0 8.0 0.00 0.42 0.00 91 1006.5
20180717194853 67 292 8.0 8.0 0.00 0.42 0.00 91 1006.5
20180717194352 67 315 6.0 6.0 0.00 0.42 0.00 91 1006.5
20180717193852 67 292 4.0 6.0 0.00 0.42 0.00 91 1006.6
20180717193352 67 292 0.0 6.0 0.00 0.42 0.00 91 1006.6
20180717192851 67 292 0.0 0.0 0.00 0.42 0.00 91 1006.6
20180717192351 67 315 0.0 5.0 0.00 0.42 0.00 91 1006.5
20180717191851 67 315 5.0 5.0 0.00 0.42 0.00 91 1006.5
20180717191351 67 315 5.0 5.0 0.00 0.42 0.00 91 1006.7
20180717190850 67 292 1.0 12.0 0.00 0.42 0.00 91 1006.4
20180717190350 67 292 5.0 5.0 0.00 0.42 0.00 91 1006.4
20180717185850 67 315 0.0 0.0 0.00 0.42 0.00 91 1006.4
20180717185350 67 292 0.0 0.0 0.00 0.42 0.00 91 1006.4
20180717184849 67 315 0.0 0.0 0.00 0.42 0.00 91 1006.3
20180717184349 67 292 0.0 0.0 0.00 0.42 0.00 91 1006.3
20180717183849 67 292 0.0 0.0 0.00 0.42 0.00 91 1006.4
20180717183349 67 292 0.0 0.0 0.00 0.42 0.00 91 1006.4
20180717182848 67 292 0.0 0.0 0.00 0.42 0.00 91 1006.5
20180717182348 67 292 0.0 0.0 0.00 0.42 0.00 91 1006.4
20180717181848 67 292 0.0 0.0 0.00 0.42 0.00 91 1006.4
20180717181347 67 292 0.0 0.0 0.00 0.42 0.00 91 1006.3
20180717180847 67 337 0.0 2.0 0.00 0.42 0.00 91 1006.3
20180717180347 67 292 2.0 2.0 0.00 0.42 0.00 91 1006.3
20180717175847 67 292 0.0 0.0 0.00 0.42 0.00 91 1006.4
20180717175346 67 292 0.0 0.0 0.00 0.42 0.00 90 1006.4
20180717174846 67 292 0.0 0.0 0.00 0.42 0.00 90 1006.4
20180717174346 67 292 0.0 0.0 0.00 0.42 0.00 90 1006.3
20180717173846 67 292 0.0 0.0 0.00 0.42 0.00 90 1006.3
20180717173346 67 292 0.0 0.0 0.00 0.42 0.00 90 1006.3
20180717172845 67 292 0.0 0.0 0.00 0.42 0.00 90 1006.3
20180717172345 67 292 0.0 0.0 0.00 0.42 0.00 90 1006.4
20180717171845 67 292 0.0 0.0 0.00 0.42 0.00 90 1006.4
20180717171344 68 292 0.0 0.0 0.00 0.42 0.00 89 1006.5
20180717170844 67 292 0.0 0.0 0.00 0.42 0.00 89 1006.5
20180717170344 68 292 0.0 0.0 0.00 0.42 0.00 89 1006.4
20180717165844 68 292 0.0 0.0 0.00 0.42 0.00 89 1006.5
20180717165343 68 292 0.0 0.0 0.00 0.42 0.00 89 1006.6
20180717164843 68 292 0.0 0.0 0.00 0.42 0.00 89 1006.6
20180717164343 68 292 0.0 4.0 0.00 0.42 0.00 89 1006.6
20180717163843 68 315 4.0 4.0 0.00 0.42 0.00 89 1006.8
20180717163342 68 270 0.0 0.0 0.00 0.42 0.00 89 1006.6
20180717162842 69 270 0.0 0.0 0.00 0.42 0.00 89 1006.5
20180717162342 69 292 0.0 0.0 0.00 0.42 0.00 89 1006.5
20180717161841 69 315 0.0 0.0 0.00 0.42 0.00 89 1006.5
20180717161341 69 270 0.0 0.0 0.10 0.42 0.00 89 1006.5
20180717160841 69 292 0.0 3.0 0.10 0.42 0.00 89 1006.5
20180717160341 69 315 0.0 0.0 0.10 0.42 0.00 90 1006.5
20180717155840 69 292 0.0 5.0 0.10 0.42 0.00 90 1006.5
20180717155340 69 315 3.0 3.0 0.10 0.42 0.00 91 1006.5
20180717154840 69 292 0.0 0.0 0.10 0.42 0.00 92 1006.5
20180717154340 69 247 0.0 3.0 0.10 0.42 0.00 92 1006.4
20180717153840 69 292 3.0 3.0 0.10 0.42 0.00 92 1006.4
20180717153339 69 315 0.0 7.0 0.10 0.42 0.00 93 1006.4
20180717152839 69 337 7.0 7.0 0.10 0.42 0.00 93 1006.4
20180717152339 69 337 2.0 2.0 0.10 0.42 0.00 93 1006.5
20180717151838 68 292 2.0 2.0 0.10 0.42 0.00 93 1006.5
20180717151338 68 270 0.0 0.0 0.00 0.32 0.00 94 1006.5
20180717150838 68 315 0.0 0.0 0.00 0.32 0.00 94 1006.5
20180717150337 176 270 0.0 0.0 0.00 0.32 0.00 10 1006.5
20180717145837 176 270 0.0 0.0 0.00 0.32 0.00 10 1006.5
20180717145337 176 270 0.0 0.0 0.00 0.32 0.00 10 1006.5
20180717144837 176 270 0.0 0.0 0.00 0.32 0.00 10 1006.6
20180717144336 176 270 0.0 0.0 0.00 0.32 0.00 10 1006.6
20180717143836 176 270 0.0 0.0 0.00 0.32 0.00 10 1006.7
20180717143336 176 270 0.0 0.0 0.00 0.32 0.00 10 1006.8
20180717142836 176 270 0.0 0.0 0.00 0.32 0.00 10 1006.9
20180717142335 176 270 0.0 0.0 0.00 0.32 0.00 10 1006.9
20180717141835 176 270 0.0 0.0 0.00 0.32 0.00 10 1006.8
20180717141335 176 270 0.0 0.0 0.00 0.32 0.00 10 1006.9
20180717140835 176 270 0.0 0.0 0.00 0.32 0.00 10 1006.8
20180717140334 176 270 0.0 0.0 0.00 0.32 0.00 10 1006.8
20180717135834 176 270 0.0 0.0 0.00 0.32 0.00 10 1006.8
20180717135334 176 270 0.0 0.0 0.00 0.32 0.00 10 1006.9
20180717134833 176 270 0.0 0.0 0.00 0.32 0.00 10 1006.9
20180717134333 176 270 0.0 0.0 0.00 0.32 0.00 10 1006.8
20180717133833 176 270 0.0 0.0 0.00 0.32 0.00 10 1006.9
20180717133333 176 270 0.0 0.0 0.00 0.32 0.00 10 1006.8
20180717132833 176 270 0.0 0.0 0.00 0.32 0.00 10 1007.0
20180717132332 176 270 0.0 0.0 0.00 0.32 0.00 10 1006.9
20180717131832 176 270 0.0 0.0 0.00 0.32 0.00 10 1006.9
20180717131332 66 270 0.0 0.0 0.02 0.32 0.00 92 1007.0
20180717130831 66 270 0.0 0.0 0.02 0.32 0.00 92 1007.1
20180717130331 66 270 0.0 0.0 0.02 0.32 0.00 92 1007.1
20180717125831 66 315 0.0 0.0 0.02 0.32 0.00 92 1007.1
20180717125331 176 247 0.0 0.0 0.02 0.32 0.00 10 1007.1
20180717124830 176 247 0.0 0.0 0.02 0.32 0.00 10 1007.1
20180717124330 176 247 0.0 0.0 0.02 0.32 0.00 10 1007.3
20180717123830 176 247 0.0 0.0 0.02 0.32 0.00 10 1007.3
20180717123330 66 247 0.0 0.0 0.02 0.32 0.00 92 1007.3
20180717122829 66 247 0.0 0.0 0.02 0.32 0.00 92 1007.2
20180717122329 66 247 0.0 0.0 0.02 0.32 0.00 92 1007.4
20180717121829 66 315 0.0 0.0 0.02 0.32 0.00 92 1007.4
20180717121329 66 247 0.0 0.0 0.02 0.32 0.00 92 1007.4
20180717120828 66 270 0.0 0.0 0.02 0.32 0.00 92 1007.4
20180717120328 66 292 0.0 0.0 0.00 0.30 0.00 92 1007.4
20180717115828 66 270 0.0 0.0 0.00 0.30 0.00 91 1007.3
20180717115327 176 225 0.0 0.0 0.00 0.30 0.00 10 1007.4
20180717114827 176 225 0.0 0.0 0.00 0.30 0.00 10 1007.3
20180717114327 66 225 0.0 0.0 0.00 0.30 0.00 91 1007.3
20180717113827 66 225 0.0 0.0 0.00 0.30 0.00 91 1007.3
20180717113326 66 225 0.0 0.0 0.00 0.30 0.00 91 1007.3
20180717112826 66 225 0.0 0.0 0.02 0.30 0.00 91 1007.3
20180717112326 66 225 0.0 0.0 0.02 0.30 0.00 91 1007.6
20180717111826 67 292 0.0 0.0 0.02 0.30 0.00 91 1007.5
20180717111325 67 292 0.0 0.0 0.02 0.30 0.00 91 1007.4
20180717110825 67 315 0.0 0.0 0.02 0.30 0.00 90 1007.5
20180717110325 67 292 0.0 0.0 0.02 0.30 0.00 90 1007.5
20180717105824 67 292 0.0 0.0 0.02 0.30 0.00 90 1007.5
20180717105324 67 337 0.0 4.0 0.02 0.30 0.00 89 1007.5
20180717104824 68 315 0.0 0.0 0.02 0.30 0.00 89 1007.5
20180717104324 68 337 0.0 0.0 0.02 0.30 0.00 89 1007.7
20180717103823 68 247 0.0 2.0 0.02 0.30 0.00 90 1007.6
20180717103323 68 315 2.0 2.0 0.00 0.28 0.00 90 1007.6
20180717102823 68 315 0.0 0.0 0.00 0.28 0.00 10 1007.5
20180717102323 68 315 0.0 0.0 0.02 0.28 0.00 10 1007.5
20180717101822 177 292 0.0 0.0 0.02 0.28 0.00 10 1007.4
20180717101322 177 292 0.0 0.0 0.02 0.28 0.00 10 1007.5
20180717100822 177 292 0.0 0.0 0.02 0.28 0.00 10 1007.5
20180717100322 67 292 0.0 0.0 0.02 0.28 0.00 91 1007.5
20180717095821 67 292 0.0 1.0 0.02 0.28 0.00 91 1007.5
20180717095321 67 315 1.0 4.0 0.02 0.28 0.00 91 1007.4
20180717094821 67 315 4.0 4.0 0.02 0.28 0.00 91 1007.5
20180717094321 67 315 4.0 4.0 0.02 0.28 0.00 91 1007.4
20180717093820 67 270 0.0 6.0 0.02 0.28 0.00 91 1007.4
20180717093320 67 315 0.0 6.0 0.02 0.28 0.00 91 1007.4
20180717092820 66 292 4.0 4.0 0.02 0.28 0.00 92 1007.4
20180717092319 66 292 0.0 4.0 0.02 0.28 0.00 92 1007.5
20180717091819 66 315 4.0 4.0 0.02 0.28 0.00 92 1007.5
20180717091319 66 315 4.0 4.0 0.00 0.26 0.00 92 1007.5
20180717090819 66 315 0.0 0.0 0.00 0.26 0.00 92 1007.5
20180717090319 176 315 0.0 0.0 0.00 0.26 0.00 92 1007.5
20180717085818 176 292 0.0 0.0 0.00 0.26 0.00 10 1007.4
20180717085318 176 292 0.0 0.0 0.00 0.26 0.00 10 1007.4
20180717084818 66 292 0.0 0.0 0.00 0.26 0.00 92 1007.4
20180717084317 66 292 0.0 0.0 0.00 0.26 0.00 92 1007.6
20180717083817 66 292 0.0 6.0 0.00 0.26 0.00 92 1007.5
20180717083317 66 315 6.0 6.0 0.00 0.26 0.00 92 1007.5
20180717082817 66 315 4.0 4.0 0.02 0.26 0.00 92 1007.4
20180717082316 66 270 0.0 3.0 0.04 0.26 0.00 92 1007.4
20180717081816 66 315 3.0 3.0 0.04 0.26 0.00 93 1007.4
20180717081316 66 315 3.0 3.0 0.04 0.26 0.00 93 1007.4
20180717080815 66 315 3.0 7.0 0.04 0.26 0.00 93 1007.4
20180717080315 66 292 7.0 7.0 0.06 0.26 0.00 93 1007.4
20180717075815 65 292 0.0 2.0 0.06 0.26 0.00 93 1007.5
20180717075315 65 270 2.0 2.0 0.06 0.26 0.00 93 1007.5
20180717074814 65 292 0.0 0.0 0.06 0.26 0.00 93 1007.3
20180717074314 64 315 0.0 0.0 0.08 0.26 0.00 93 1007.4
20180717073814 64 315 0.0 0.0 0.08 0.26 0.00 92 1007.4
20180717073314 64 292 0.0 0.0 0.06 0.24 0.00 92 1007.6
20180717072813 64 270 0.0 3.0 0.04 0.22 0.00 92 1007.4
20180717072313 64 292 3.0 3.0 0.04 0.22 0.00 92 1007.5
20180717071813 64 315 0.0 0.0 0.04 0.22 0.00 92 1007.4
20180717071313 64 270 0.0 2.0 0.06 0.22 0.00 92 1007.4
20180717070812 64 292 2.0 2.0 0.06 0.22 0.00 92 1007.4
20180717070312 64 292 0.0 0.0 0.06 0.20 0.00 92 1007.4
20180717065812 64 315 0.0 0.0 0.08 0.20 0.00 92 1007.4
20180717065311 64 315 0.0 0.0 0.08 0.20 0.00 92 1007.5
20180717064811 64 337 0.0 0.0 0.06 0.18 0.00 92 1007.5
20180717064311 64 292 0.0 0.0 0.06 0.18 0.00 92 1007.5
20180717063811 64 270 0.0 0.0 0.08 0.18 0.00 92 1007.4
20180717063310 64 315 0.0 0.0 0.12 0.18 0.00 91 1007.5
20180717062810 64 292 0.0 0.0 0.12 0.18 0.00 91 1007.5
20180717062310 64 292 0.0 0.0 0.14 0.18 0.00 91 1007.5
20180717061810 64 292 0.0 0.0 0.14 0.18 0.00 91 1007.5
20180717061309 64 292 0.0 0.0 0.14 0.16 0.00 91 1007.5
20180717060809 64 315 0.0 0.0 0.16 0.16 0.00 91 1007.4
20180717060309 64 270 0.0 0.0 0.14 0.14 0.00 91 1007.4
20180717055809 64 270 0.0 0.0 0.12 0.12 0.00 91 1007.5
20180717055309 63 270 0.0 0.0 0.12 0.12 0.00 90 1007.4
20180717054808 63 270 0.0 0.0 0.12 0.12 0.00 90 1007.5
20180717054308 63 270 0.0 0.0 0.12 0.12 0.00 90 1007.4
20180717053807 63 270 0.0 0.0 0.10 0.10 0.00 90 1007.5
20180717053307 63 270 0.0 0.0 0.06 0.06 0.00 89 1007.5
20180717052807 63 292 0.0 0.0 0.04 0.04 0.00 89 1007.7
20180717052307 63 292 0.0 0.0 0.04 0.04 0.00 89 1007.9
20180717051807 63 292 0.0 0.0 0.04 0.04 0.00 89 1007.8
20180717051306 63 292 0.0 0.0 0.02 0.02 0.00 89 1007.8
20180717050806 63 292 0.0 0.0 0.00 0.00 0.00 88 1007.6
20180717050306 64 315 0.0 0.0 0.00 0.00 0.00 86 1007.5
20180717045805 64 315 0.0 0.0 0.00 0.00 0.00 86 1007.5
20180717045305 64 315 0.0 0.0 0.00 0.00 0.00 86 1007.5
20180717044805 64 270 0.0 0.0 0.00 0.00 0.00 86 1007.7
20180717044305 64 292 0.0 0.0 0.00 0.00 0.00 86 1007.6
20180717043804 64 0 0.0 0.0 0.00 0.00 0.00 87 1007.6
20180717043304 63 0 0.0 0.0 0.00 0.00 0.00 87 1007.5
20180717042804 63 0 0.0 0.0 0.00 0.00 0.00 87 1007.5
20180717042304 63 0 0.0 0.0 0.00 0.00 0.00 87 1007.5
20180717041803 62 0 0.0 0.0 0.00 0.00 0.00 88 1007.5
20180717041303 62 0 0.0 0.0 0.00 0.00 0.00 88 1007.5
20180717040803 62 0 0.0 0.0 0.00 0.00 0.00 88 1007.6
20180717040303 61 0 0.0 0.0 0.00 0.00 0.00 88 1007.6
20180717035802 61 292 0.0 0.0 0.00 0.00 0.00 88 1007.7
20180717035302 60 292 0.0 0.0 0.00 0.00 0.00 88 1007.6
20180717034802 60 292 0.0 0.0 0.00 0.00 0.00 88 1007.7
20180717034301 60 292 0.0 0.0 0.00 0.00 0.00 88 1007.6
20180717033801 60 292 0.0 0.0 0.00 0.00 0.00 88 1007.6
20180717033301 59 292 0.0 0.0 0.00 0.00 0.00 88 1007.5
20180717032801 59 292 0.0 0.0 0.00 0.00 0.00 88 1007.5
20180717032300 59 292 0.0 0.0 0.00 0.00 0.00 88 1007.6
20180717031800 58 292 0.0 0.0 0.00 0.00 0.00 87 1007.6
20180717031300 58 292 0.0 0.0 0.00 0.00 0.00 87 1007.6
20180717030800 58 292 0.0 0.0 0.00 0.00 0.00 87 1007.7
20180717030259 58 292 0.0 0.0 0.00 0.00 0.00 87 1007.5
20180717025759 59 292 0.0 0.0 0.00 0.00 0.00 87 1007.5
20180717025259 59 292 0.0 0.0 0.00 0.00 0.00 87 1007.5
20180717024759 59 292 0.0 0.0 0.00 0.00 0.00 86 1007.5
20180717024258 59 292 0.0 0.0 0.00 0.00 0.00 86 1007.4
20180717023758 59 292 0.0 0.0 0.00 0.00 0.00 86 1007.5
20180717023258 60 292 0.0 0.0 0.00 0.00 0.00 86 1007.5
20180717022757 60 292 0.0 0.0 0.00 0.00 0.00 86 1007.6
20180717022257 60 292 0.0 0.0 0.00 0.00 0.00 86 1007.7
20180717021757 60 292 0.0 0.0 0.00 0.00 0.00 86 1007.6
20180717021257 60 292 0.0 0.0 0.00 0.00 0.00 86 1007.6
20180717020756 60 292 0.0 0.0 0.00 0.00 0.00 86 1007.6
20180717020256 60 292 0.0 0.0 0.00 0.00 0.00 86 1007.6
20180717015756 60 292 0.0 0.0 0.00 0.00 0.00 86 1007.5
20180717015256 60 292 0.0 0.0 0.00 0.00 0.00 85 1007.5
20180717014755 60 292 0.0 0.0 0.00 0.00 0.00 85 1007.7
20180717014255 60 292 0.0 0.0 0.00 0.00 0.00 85 1007.8
20180717013755 60 292 0.0 0.0 0.00 0.00 0.00 85 1007.8
20180717013255 60 292 0.0 0.0 0.00 0.00 0.00 85 1007.8
20180717012755 60 292 0.0 0.0 0.00 0.00 0.00 84 1007.8
20180717012254 60 292 0.0 0.0 0.00 0.00 0.00 84 1007.8
20180717011754 60 270 0.0 0.0 0.00 0.00 0.00 84 1007.8